Weather Roundup
Issued by NWS

Home | Current Version | Previous Version | Graphics & Text | Print | Product List | Glossary Off
Versions: 1 2 3 4 5 6 7 8 9 10 11 12 13 14 15 16 17 18 19 20 21 22 23 24 25 26 27 28 29 30 31 32 33 34 35 36 37 38 39 40 41 42 43 44 45 46 47 48 49 50

000
NZUS93 KARX 252159
HRRWXR

CURRENT HOURLY OBSERVATIONS ACROSS
MUCH OF THE UPPER MISSISSIPPI VALLEY
NATIONAL WEATHER SERVICE LA CROSSE WI
500 PM CDT THU AUG 25 2016


...SOUTHEAST MINNESOTA...


CITY           SKY/WX    TMP DP  RH WIND       PRES   REMARKS
ROCHESTER      MOSUNNY   75  61  61 NW9       30.09R
ROCHESTER/MAYO FAIR      74  53  47 W15G23    30.07S
WINONA         MOSUNNY   77  54  44 NW10G16   30.05S
AUSTIN         MOSUNNY   73  57  56 W10       30.09S
ALBERT LEA     MOSUNNY   73  59  60 W5        30.10R
DODGE CENTER   MOSUNNY   73  54  49 W13G21    30.09S
PRESTON        MOSUNNY   74  58  57 W7        30.09S
OWATONNA       SUNNY     73  54  49 W12       30.09S
FARIBAULT      MOSUNNY   72  57  60 W12       30.09S
$$

...ELSEWHERE IN MINNESOTA...


CITY           SKY/WX    TMP DP  RH WIND       PRES   REMARKS
MINNEAPOLIS    PTSUNNY   72  55  55 NW20      30.06S
INTNL FALLS    CLOUDY    63  56  78 NW13G24   29.95R
DULUTH         PTSUNNY   68  54  60 W21G28    29.99S
RED WING       CLOUDY    73  55  53 W10       30.04S
REDWOOD FALLS  MOSUNNY   73  55  53 W15       30.09F
MANKATO        MOSUNNY   72  55  56 NW12      30.09S
WORTHINGTON    SUNNY     71  56  58 W13       30.14S
FAIRMONT       SUNNY     74  58  57 NW12      30.11S
$$

...SOUTHWEST WISCONSIN...


CITY           SKY/WX    TMP DP  RH WIND       PRES   REMARKS
LA CROSSE      CLOUDY    80  61  52 SW9       30.04R
PRAIRIE DU CHI CLOUDY    77  60  55 W7        30.07S
BOSCOBEL       MOSUNNY   78  62  57 W7        30.07R
LONE ROCK      NOT AVBL
PLATTEVILLE    CLOUDY    74  64  72 W3        30.09R
FORT MC COY    MOSUNNY   75  62  62 SW6       30.05S
MAUSTON-NEW LI CLOUDY    77  63  60 W12G17    30.03S
VIROQUA        FAIR      74  62  65 SW7       30.07F
WIS DELLS      NOT AVBL
$$

...ELSEWHERE IN WISCONSIN...


CITY           SKY/WX    TMP DP  RH WIND       PRES   REMARKS
MILWAUKEE      CLOUDY    80  63  55 SE6       30.03R
MADISON        CLOUDY    76  61  59 VRB3      30.05R
GREEN BAY      MOSUNNY   79  62  56 W9        29.98F
EAU CLAIRE     NOT AVBL
BLACK RVR FLS  FAIR      76  58  53 SW9       30.03S
MEDFORD        MOSUNNY   73  55  53 W14G25    30.01S
WAUSAU         PTSUNNY   76  58  53 W15G22    29.99S
WIS RAPIDS     PTSUNNY   78  60  53 W16G23    30.03S
MARSHFIELD     MOSUNNY   76  58  53 W14G21    30.02R
RICE LAKE      MOSUNNY   72  54  54 W15G22    30.04S
$$

...NORTHEAST IOWA...


CITY           SKY/WX    TMP DP  RH WIND       PRES   REMARKS
WATERLOO       CLOUDY    76  59  55 W5        30.08F
DUBUQUE        CLOUDY    74  63  68 NW8       30.09R
DECORAH        CLOUDY    75  63  64 W6        30.08S
MASON CITY     MOSUNNY   76  59  55 NW8       30.11F
CHARLES CITY   MOSUNNY   77  63  61 W8        30.10S
OELWEIN        CLOUDY    75  63  64 W7        30.10F
$$

...ELSEWHERE IN IOWA...


CITY           SKY/WX    TMP DP  RH WIND       PRES   REMARKS
DES MOINES     CLOUDY    76  62  62 NW3       30.10R
IOWA CITY      CLOUDY    77  65  66 NW8       30.09S
FORT DODGE     MOSUNNY   77  61  57 W5        30.12R
MARSHALLTOWN   CLOUDY    73  64  73 NW5       30.10S
CEDAR RAPIDS   CLOUDY    75  66  73 NW8       30.09R
$$

...NORTHERN ILLINOIS...


CITY           SKY/WX    TMP DP  RH WIND       PRES   REMARKS
CHICAGO-OHARE  CLOUDY    80  66  62 NW10      30.02S
CHICAGO-MIDWAY CLOUDY    83  64  52 W7        30.01S
MOLINE         CLOUDY    78  65  63 W7        30.06S
ROCKFORD       CLOUDY    77  65  66 W6        30.06S
PEORIA         CLOUDY    81  73  76 SW7       30.04S
$$

NOTE: "FAIR" INDICATES FEW OR NO CLOUDS BELOW 12,000 FEET WITH NO
SIGNIFICANT WEATHER AND/OR OBSTRUCTIONS TO VISIBILITY. WIND
SPEEDS ARE IN MILES-PER-HOUR.




USA.gov is the U.S. government's official web portal to all federal, state and local government web resources and services.